World > North America > United States > North Dakota

Havelock, North Dakota Regional Weather

Lat: 46.47N, Lon: 102.74W
Wx Zone: NDZ041Web Search

Helpful Tip: You can add this page to Bookmarks by pressing the Ctrl key & d key at the same time. Mac users press command & d.

Feedback


°F Click to change Havelock hourly weather to Imperial units.Click to change Havelock hourly weather to Metric units. °C
Havelock Weather Map
UTC Time: 4/14/2021, 13:32
Your Time:

Havelock, ND Regional Weather

Expires:202104141400;;539457
ASUS43 KBIS 141310
RWRND 

NORTH DAKOTA REGIONAL WEATHER ROUNDUP
NATIONAL WEATHER SERVICE BISMARCK ND
800 AM CDT WED APR 14 2021

NOTE: "FAIR" INDICATES FEW OR NO CLOUDS BELOW 12,000 FEET WITH NO
SIGNIFICANT WEATHER AND/OR OBSTRUCTIONS TO VISIBILITY.



NDZ018>021-031>035-040>046-141400-
SOUTHWEST NORTH DAKOTA
  
CITY           SKY/WX    TMP DP  RH WIND       PRES   REMARKS
BISMARCK       CLOUDY    25  20  81 N9        30.37R WCI  15          
DICKINSON      LGT SNOW  21  17  84 N10       30.33R FOG     WCI  10  
GARRISON         N/A     22  19  89 N12       30.37R WCI  10          
HETTINGER ARPT LGT SNOW  22  21  96 N10       30.34R FOG     WCI  11  
$$
 

SKY/WX - Weather  TMP - Temperature  DP - Dew Point  RH - Relative Humidity
WIND - Wind Direction/Speed PRES - Barometric Pressure VSB - Visibility
WCI - Wind Chill Index E13G22 Wind - East Wind 13 mph/Gusts of 22 mph